Wind_Speed
94 95 95 96 97 98 98 100 102 103 105 107 107 107 108 107 106 106 106 106 107 107 107 107 107 108 109 109 110 110 109 107 106 105 106 104 103 101 98 97 97 95 93
93 95 98 99 99 101 102 104 104 104 105 106 106 106 108 108 109 111 112 113 113 113 111 111 112 112 112 113 114 115 114 113 113 113 112 110 111 110 109 107 106 103 103
90 91 93 95 97 98 99 101 101 103 104 103 103 103 104 105 107 109 111 112 114 115 118 120 121 121 121 120 119 120 120 118 118 118 118 118 118 116 114 113 113 113 112
84 86 88 91 93 94 96 97 98 100 102 102 102 103 104 105 106 106 107 107 108 110 113 115 117 119 122 123 124 125 124 124 124 124 125 125 124 122 120 119 119 119 118
84 83 86 88 89 89 90 91 93 95 96 97 97 99 101 103 104 106 106 105 105 105 106 108 111 112 114 116 117 119 121 122 124 127 130 131 131 130 129 128 127 126 125
79 80 81 82 84 85 86 87 88 89 89 91 93 94 96 97 98 99 101 102 102 103 104 105 106 108 109 111 114 115 116 117 119 121 123 124 128 129 130 130 131 133 133
76 79 82 84 87 90 91 92 93 95 97 99 100 101 101 101 100 100 100 100 100 101 102 103 105 106 107 107 108 111 112 114 115 117 118 119 121 124 125 125 128 131 132
80 82 85 88 91 94 97 100 102 104 105 106 107 107 107 108 108 107 108 107 108 107 107 107 107 109 111 109 108 108 108 110 113 114 114 116 118 120 122 124 124 125 127
87 89 91 94 97 100 103 105 107 109 110 111 113 114 114 114 114 114 113 114 114 115 114 113 114 116 116 115 113 112 111 111 111 110 110 112 114 117 119 121 123 123 123
85 83 82 83 84 85 85 86 88 90 93 95 97 99 100 102 104 106 107 107 109 109 109 110 112 113 116 117 118 117 116 117 115 113 111 111 112 114 115 117 118 118 119
65 65 66 68 70 71 72 73 75 78 81 84 86 88 89 90 91 92 93 94 96 95 96 98 99 101 105 108 112 113 116 118 116 114 113 112 112 111 112 113 114 115 117
51 52 53 54 55 57 59 62 65 67 69 72 75 77 79 80 81 82 82 84 86 87 88 89 91 92 95 98 101 104 109 112 113 114 114 114 112 111 110 110 111 112 114
39 40 42 44 45 47 49 52 54 56 59 62 64 66 67 70 72 74 76 78 80 82 86 86 87 87 88 89 93 95 99 102 106 108 110 112 113 113 112 112 112 113 113
31 32 33 35 37 39 40 43 45 47 50 53 55 59 61 64 67 69 72 75 78 80 82 84 85 85 86 87 88 89 90 92 94 98 102 106 109 110 112 113 114 115 115
30 31 32 34 36 37 39 41 43 44 47 49 51 54 56 59 60 62 65 67 70 72 73 75 76 77 78 79 81 82 83 83 84 88 91 94 96 98 100 101 102 104 104
31 32 33 35 37 38 40 42 44 46 48 51 53 55 57 61 62 64 66 68 69 71 72 73 75 75 75 76 77 78 78 79 81 82 84 85 87 88 89 91 92 93 94
31 32 34 36 38 39 42 44 46 49 51 53 55 57 59 62 64 64 66 67 67 68 68 69 70 71 72 73 74 75 78 79 79 80 81 83 84 85 86 87 88 88 89
32 33 34 37 38 40 43 45 48 51 53 54 56 59 60 62 64 65 65 64 65 66 66 68 69 69 71 72 73 74 75 76 76 77 78 80 81 82 84 85 85 85 86
35 36 38 39 41 43 45 47 49 52 55 57 57 57 59 62 63 64 63 62 64 67 67 67 68 68 69 71 71 72 73 74 74 75 76 76 77 78 79 79 79 80 81
38 39 42 43 45 46 48 51 53 55 57 59 60 59 59 59 61 60 59 60 62 65 66 66 67 67 67 67 68 68 69 68 67 67 67 68 69 70 71 71 71 72 72
41 43 45 48 48 49 52 54 56 58 59 59 59 58 59 58 57 56 56 57 59 59 59 58 57 58 59 59 60 60 61 61 61 61 63 63 63 64 64 64 65 65 66
44 47 48 48 49 52 54 56 58 59 59 58 56 54 53 53 52 51 51 51 52 53 53 53 53 53 54 55 55 55 55 55 54 56 57 57 57 58 57 58 58 59 59
47 49 49 50 53 54 56 57 57 57 55 52 52 52 50 50 49 49 49 49 49 49 48 47 46 46 47 47 48 49 49 49 50 51 52 52 53 53 54 54 55 55 56
48 49 50 52 53 55 56 55 53 51 51 50 48 48 47 46 45 45 44 43 42 42 41 40 40 41 42 43 43 44 45 45 46 47 48 49 49 49 50 50 50 50 51
48 50 52 54 54 55 54 52 50 49 48 45 44 44 43 42 40 39 39 39 38 38 38 38 37 37 38 39 40 41 41 41 41 42 43 44 44 43 43 44 43 44 46
50 51 53 53 53 53 51 47 46 45 45 43 42 40 38 37 36 36 35 35 34 34 34 33 33 34 35 36 37 37 37 37 37 38 39 39 39 38 38 39 40 42 42
Wind_Direction
254 254 254 255 256 257 257 257 256 256 256 255 254 255 254 255 255 255 255 255 256 256 256 255 255 255 255 254 254 254 254 254 255 255 255 254 254 255 255 256 257 258 257
259 257 255 255 255 255 256 256 257 258 258 258 258 258 257 256 256 255 255 255 255 255 256 255 255 255 255 254 254 253 254 254 255 255 254 255 255 255 255 255 255 256 257
259 259 258 258 258 258 258 259 259 258 258 259 259 259 258 257 257 256 256 256 255 255 255 255 255 255 255 254 254 253 253 253 253 255 255 255 254 254 255 255 254 254 254
260 259 259 259 258 258 258 258 258 257 257 257 257 258 258 258 257 257 256 256 256 256 255 255 255 256 256 255 255 255 254 254 253 253 254 255 255 254 254 255 255 255 254
259 260 260 260 259 259 259 258 257 256 257 257 257 257 256 257 257 258 258 257 257 257 256 255 256 256 256 256 256 255 256 255 254 254 254 255 255 255 255 255 254 253 254
259 259 258 259 260 260 259 258 258 258 258 258 258 257 257 256 256 256 257 257 257 257 257 257 257 257 257 256 256 256 255 255 255 255 254 254 255 255 254 253 253 253 253
260 260 261 261 261 261 261 261 260 260 260 259 259 259 259 259 259 258 257 257 256 256 256 255 256 256 257 256 256 256 256 255 255 255 255 255 255 255 254 254 253 252 251
265 265 264 263 262 262 262 262 261 261 261 261 261 260 259 259 258 258 258 258 259 258 257 256 257 256 257 257 256 256 256 256 255 255 255 255 255 255 255 254 253 252 252
267 266 265 264 263 262 261 261 260 260 260 260 259 259 259 259 259 258 258 258 259 259 259 258 258 257 257 257 257 257 257 256 256 257 257 257 257 256 256 256 256 255 254
267 266 264 263 262 261 261 260 259 259 260 260 259 259 258 259 259 258 258 258 258 258 259 258 258 259 258 258 257 256 256 256 256 256 257 258 259 258 258 257 257 256 255
268 267 265 263 262 261 260 260 260 260 260 260 259 259 259 259 258 257 257 256 256 256 257 258 258 258 258 258 257 256 256 257 257 257 258 258 258 258 258 258 257 257 258
266 266 265 265 264 264 263 262 261 260 260 260 261 261 261 261 261 260 258 257 257 258 258 259 259 259 259 259 258 257 256 256 257 257 257 258 258 258 258 258 258 257 257
271 270 268 267 267 266 265 264 263 263 263 263 263 262 262 262 262 262 262 261 261 261 262 261 261 260 259 259 258 258 257 256 256 257 257 258 258 258 258 258 258 258 258
277 275 274 273 272 271 270 269 269 269 268 267 266 266 265 264 264 264 263 263 262 262 262 263 263 262 261 260 260 259 258 258 258 258 258 258 259 259 259 259 260 260 260
281 281 280 279 278 277 277 275 274 272 271 271 270 270 269 269 268 267 266 265 265 264 264 264 264 264 264 264 263 263 262 261 261 260 259 259 259 259 259 259 259 259 258
291 289 287 285 283 282 281 280 278 277 276 275 274 272 271 271 270 268 267 267 266 265 265 265 265 265 264 264 264 264 264 263 262 261 261 260 260 260 260 260 259 259 259
298 296 294 291 289 287 284 283 281 280 278 277 275 274 273 273 272 270 269 269 269 268 267 266 265 264 263 263 262 261 260 259 259 259 259 259 260 260 260 260 260 260 260
299 299 297 295 293 291 289 288 287 286 283 281 280 279 278 277 276 275 274 273 272 270 268 267 265 264 263 262 261 261 262 261 260 260 260 260 260 260 261 261 261 261 261
299 299 298 296 294 292 292 292 291 289 288 286 283 281 279 279 278 275 273 272 270 269 267 267 267 265 264 264 264 263 263 262 262 262 262 262 262 262 262 262 262 262 262
298 299 299 298 297 295 294 295 295 294 292 291 289 288 286 282 279 276 274 272 270 270 270 269 268 267 266 265 265 265 265 264 264 263 263 263 262 262 262 262 261 261 260
299 300 300 300 300 299 299 298 298 297 295 294 292 290 287 284 282 279 277 274 272 270 270 269 268 267 267 266 266 265 265 265 265 265 264 263 263 263 262 262 262 261 261
301 301 302 301 301 302 302 302 301 299 297 296 293 290 288 286 284 282 278 275 273 272 271 270 269 268 267 266 266 265 265 264 263 262 262 263 262 262 262 262 262 261 261
303 303 303 303 305 304 304 303 302 300 298 296 294 292 289 287 285 282 280 277 275 273 272 271 269 268 266 265 264 264 264 264 263 263 263 262 262 262 262 262 262 262 262
304 305 305 306 305 305 305 303 302 300 299 298 296 293 291 289 287 284 281 278 276 275 273 271 268 266 265 265 265 264 263 263 263 263 263 263 263 262 262 262 262 262 262
308 308 308 307 307 307 305 305 304 303 301 300 298 296 294 292 289 286 283 280 278 275 273 271 269 269 268 266 264 264 263 263 262 262 263 263 263 263 263 264 264 263 262
309 309 308 308 308 307 307 306 306 305 304 304 302 299 295 292 289 285 283 280 277 275 273 272 269 267 266 265 265 265 264 264 263 262 263 264 265 266 266 265 264 264 264
Height
10339 10342 10346 10349 10351 10353 10356 10357 10359 10363 10366 10368 10373 10379 10383 10389 10395 10400 10405 10410 10415 10420 10425 10430 10435 10439 10444 10450 10455 10460 10465 10471 10475 10482 10486 10491 10494 10499 10506 10510 10513 10517 10521
10312 10315 10318 10320 10323 10325 10327 10327 10330 10332 10335 10338 10345 10349 10353 10358 10363 10367 10371 10377 10382 10387 10392 10396 10401 10406 10411 10416 10421 10427 10433 10440 10444 10448 10456 10461 10464 10471 10477 10482 10485 10489 10494
10283 10286 10288 10291 10293 10297 10299 10299 10303 10305 10307 10311 10315 10318 10321 10326 10330 10335 10339 10344 10348 10353 10357 10362 10367 10370 10375 10381 10387 10391 10400 10407 10410 10414 10418 10427 10433 10438 10443 10448 10455 10462 10465
10257 10258 10260 10261 10264 10265 10268 10272 10273 10274 10277 10280 10284 10287 10290 10293 10296 10301 10305 10309 10314 10318 10321 10325 10330 10334 10338 10344 10350 10354 10362 10368 10375 10381 10383 10389 10396 10403 10410 10415 10422 10427 10433
10231 10232 10233 10233 10235 10237 10240 10241 10243 10245 10247 10251 10255 10258 10260 10263 10266 10270 10273 10278 10281 10285 10288 10292 10296 10300 10304 10309 10313 10318 10324 10331 10336 10343 10348 10351 10355 10364 10372 10377 10384 10390 10395
10206 10207 10208 10208 10208 10210 10212 10213 10215 10217 10220 10222 10224 10227 10230 10234 10238 10241 10245 10247 10250 10253 10255 10258 10263 10267 10270 10275 10278 10283 10289 10293 10298 10304 10309 10316 10316 10324 10329 10338 10345 10349 10358
10182 10183 10184 10184 10184 10184 10184 10185 10188 10190 10191 10192 10194 10197 10200 10204 10208 10212 10214 10216 10218 10221 10225 10228 10231 10233 10236 10240 10245 10249 10253 10257 10262 10266 10273 10278 10282 10282 10289 10295 10301 10311 10317
10156 10157 10157 10156 10155 10155 10156 10156 10155 10156 10157 10160 10163 10166 10168 10170 10175 10179 10182 10184 10184 10188 10191 10196 10199 10200 10202 10208 10212 10216 10220 10223 10226 10233 10240 10241 10244 10246 10249 10253 10261 10269 10276
10127 10126 10126 10124 10123 10122 10121 10120 10121 10122 10124 10126 10127 10129 10131 10136 10140 10144 10149 10151 10152 10153 10158 10161 10164 10164 10167 10175 10181 10182 10186 10189 10191 10197 10203 10207 10208 10211 10214 10218 10223 10231 10240
10097 10095 10093 10091 10089 10089 10089 10089 10089 10089 10090 10091 10092 10095 10098 10101 10104 10108 10113 10116 10116 10119 10122 10124 10128 10131 10132 10137 10143 10147 10151 10150 10157 10163 10170 10172 10174 10175 10177 10183 10189 10197 10201
10070 10067 10066 10065 10064 10063 10064 10063 10063 10063 10064 10065 10065 10067 10068 10071 10074 10078 10081 10085 10084 10090 10091 10092 10095 10097 10098 10100 10106 10112 10114 10114 10122 10132 10134 10137 10138 10142 10145 10150 10155 10160 10164
10050 10048 10046 10044 10044 10043 10042 10043 10042 10042 10042 10042 10042 10042 10043 10045 10047 10050 10053 10056 10058 10061 10061 10063 10065 10069 10069 10070 10072 10075 10079 10081 10089 10091 10097 10098 10103 10108 10112 10115 10118 10125 10131
10034 10032 10030 10028 10027 10026 10025 10025 10024 10024 10023 10022 10022 10022 10023 10023 10024 10025 10027 10029 10031 10033 10030 10034 10037 10039 10040 10041 10041 10045 10047 10050 10052 10058 10061 10065 10068 10072 10076 10079 10084 10087 10092
10023 10021 10019 10016 10015 10013 10012 10010 10009 10008 10007 10006 10005 10004 10002 10002 10002 10003 10003 10004 10004 10005 10006 10006 10007 10009 10010 10011 10013 10013 10017 10020 10024 10028 10029 10031 10032 10036 10040 10042 10046 10049 10055
10014 10011 10009 10006 10003 10001 9999 9997 9995 9994 9991 9989 9988 9986 9985 9982 9982 9982 9982 9981 9980 9980 9982 9982 9982 9982 9982 9983 9984 9984 9987 9991 9994 9995 9997 9998 10000 10003 10004 10008 10012 10013 10018
10002 9999 9996 9993 9991 9988 9986 9983 9981 9979 9976 9973 9971 9969 9967 9962 9961 9961 9959 9958 9958 9957 9958 9958 9956 9956 9957 9957 9959 9959 9961 9962 9963 9966 9966 9967 9969 9972 9974 9977 9980 9982 9985
9991 9988 9984 9981 9978 9975 9972 9968 9965 9962 9958 9956 9952 9949 9946 9942 9939 9937 9936 9934 9934 9932 9933 9932 9932 9931 9932 9932 9933 9933 9932 9933 9936 9938 9939 9939 9942 9943 9946 9946 9949 9952 9954
9981 9977 9973 9969 9965 9962 9957 9953 9948 9944 9940 9937 9933 9929 9925 9921 9917 9913 9911 9911 9908 9906 9906 9904 9904 9905 9905 9904 9905 9905 9906 9908 9910 9911 9913 9914 9916 9918 9918 9918 9920 9923 9925
9970 9965 9961 9957 9953 9947 9942 9938 9933 9927 9921 9915 9911 9908 9905 9899 9893 9889 9888 9888 9884 9878 9879 9879 9879 9879 9879 9878 9879 9881 9881 9882 9884 9886 9886 9888 9889 9890 9889 9891 9893 9894 9897
9958 9953 9947 9942 9937 9931 9926 9920 9913 9907 9900 9893 9887 9883 9878 9875 9868 9866 9866 9863 9859 9855 9854 9855 9854 9855 9855 9854 9854 9856 9856 9857 9859 9860 9861 9862 9862 9864 9865 9866 9868 9869 9872
9944 9939 9933 9926 9920 9914 9908 9901 9894 9887 9879 9872 9867 9862 9856 9850 9847 9844 9842 9839 9835 9833 9832 9832 9832 9832 9832 9832 9832 9833 9833 9835 9837 9838 9837 9838 9840 9841 9842 9843 9845 9847 9848
9930 9923 9917 9912 9905 9898 9890 9882 9874 9866 9859 9852 9845 9840 9835 9830 9826 9823 9821 9818 9815 9814 9813 9812 9812 9812 9812 9811 9812 9812 9813 9815 9816 9816 9816 9818 9819 9820 9822 9823 9824 9826 9827
9915 9908 9902 9895 9888 9880 9872 9865 9857 9848 9840 9834 9828 9821 9817 9811 9808 9804 9801 9799 9796 9795 9794 9794 9794 9794 9793 9793 9794 9794 9795 9797 9798 9798 9799 9799 9801 9803 9804 9805 9806 9807 9809
9901 9895 9887 9880 9872 9864 9855 9847 9840 9832 9823 9817 9811 9804 9799 9794 9790 9786 9784 9782 9780 9779 9779 9779 9779 9778 9778 9778 9779 9779 9780 9781 9781 9782 9782 9783 9784 9786 9786 9787 9789 9791 9791
9886 9879 9872 9863 9855 9847 9839 9830 9822 9815 9807 9801 9795 9789 9784 9779 9775 9772 9769 9767 9766 9765 9764 9764 9764 9765 9765 9764 9763 9764 9765 9766 9767 9767 9767 9767 9768 9771 9772 9772 9773 9774 9774
9873 9865 9857 9849 9840 9830 9822 9815 9807 9800 9793 9787 9781 9775 9771 9766 9763 9759 9757 9754 9753 9751 9751 9751 9751 9751 9751 9750 9750 9751 9752 9753 9754 9754 9753 9754 9755 9757 9758 9758 9758 9758 9759